Home > Time Zones > World Clock > Weather > China > Hefei > Past weeks

Flag for China Weather past 2 weeks in Hefei, Anhui, China

Now
81 °F

Sunny.


Feels Like: 80 °F
Forecast: 58 / 83 °F
Wind: 3 mph from North

Location: Hefei Airport

Current Time: Oct 25, 2014 at 5:06:33 PM

Latest Report: Oct 25, 2014 at 4:00 PM


Visibility: 10 mi

Pressure: 29.98 "Hg

Humidity: 34%

Dew point: 50 °F

Location of HefeiLocation

Historic Weather in Hefei — Graph

°F

Hefei temperature yesterday

Maximum temperature yesterday: 79 °F (at 2:00 PM)
Minimum temperature yesterday: 54 °F (at 6:00 AM)
Average temperature yesterday: 66 °F

Past Weeks' High & Low Weather Summary

 TemperatureHumidityPressure
High82 °F (Oct 19, 3:00 PM)100% (Oct 21, 3:00 AM)30.33 "Hg (Oct 21, 3:00 AM)
Low50 °F (Oct 14, 5:00 AM)30% (Oct 18, 3:00 PM)29.86 "Hg (Oct 20, 2:00 PM)
Average65 °F72%30.10 "Hg
* Reported Oct 10 4:00 PM — Oct 25 4:00 PM, Hefei, Weather by CustomWeather, © 2014

Note: Actual official high and low records may vary slightly from our data, if they occured in-between our weather recording intervals... More about our weather records

Advertising

Hefei weather history for previous 24 hours

 ConditionsComfort  
Time TempWeatherWind HumidityBarometerVisibility
4:00 PM
Oct 25
81 °FSunny.3 mph34%29.98 "Hg10 mi
3:00 PM82 °FPassing clouds.6 mph32%29.98 "HgN/A
2:00 PM81 °FPassing clouds.3 mph34%29.98 "HgN/A
1:00 PM81 °FPassing clouds.6 mph34%30.01 "HgN/A
12:00 PM79 °FPassing clouds.6 mph42%30.01 "HgN/A
11:00 AM77 °FSunny.8 mph47%30.04 "Hg10 mi
10:00 AM73 °FClear.6 mph57%30.07 "Hg6 mi
9:00 AM70 °FClear.3 mph60%30.07 "Hg4 mi
8:00 AM63 °FFog.3 mph83%30.04 "Hg2 mi
7:00 AM57 °FFog.8 mph88%30.04 "Hg2 mi
6:00 AM55 °FFog.6 mph88%30.01 "Hg2 mi
5:00 AM55 °FFog.3 mph88%30.01 "Hg2 mi
4:00 AM57 °FFog.6 mph88%30.01 "Hg2 mi
3:00 AM57 °FFog.6 mph88%30.01 "Hg2 mi
2:00 AM59 °FFog.3 mph88%30.01 "Hg2 mi
1:00 AM59 °FFog.6 mph88%30.04 "Hg3 mi
12:00 AM61 °FFog.6 mph77%30.04 "Hg3 mi
11:00 PM
Oct 24
63 °FClear.3 mph77%30.04 "Hg4 mi
10:00 PM63 °FClear.8 mph77%30.04 "Hg5 mi
9:00 PM63 °FClear.8 mph73%30.04 "Hg10 mi
8:00 PM66 °FClear.6 mph64%30.01 "Hg10 mi
7:00 PM64 °FClear.6 mph68%30.01 "Hg10 mi
6:00 PM68 °FClear.6 mph64%29.98 "Hg10 mi
5:00 PM75 °FSunny.6 mph44%29.98 "Hg10 mi
Weather by CustomWeather, © 2014

See weather overviewHow to use our weather pages